TimeMDT,TemperatureF,Dew PointF,Humidity,Sea Level PressureIn,VisibilityMPH,Wind Direction,Wind SpeedMPH,Gust SpeedMPH,PrecipitationIn,Events,Conditions,WindDirDegrees,DateUTC
12:15 AM,37.4,30.2,75,30.27,10.0,East,3.5,-,N/A,,Clear,80,2012-10-12 06:15:00
12:35 AM,39.2,30.2,70,30.26,10.0,NE,5.8,-,N/A,,Clear,50,2012-10-12 06:35:00
12:55 AM,39.2,30.2,70,30.25,10.0,NE,4.6,-,N/A,,Clear,40,2012-10-12 06:55:00
1:15 AM,37.4,30.2,75,30.25,10.0,North,3.5,-,N/A,,Clear,10,2012-10-12 07:15:00
1:35 AM,37.4,30.2,75,30.23,10.0,NE,5.8,-,N/A,,Clear,40,2012-10-12 07:35:00
1:55 AM,37.4,30.2,75,30.24,10.0,NE,6.9,-,N/A,,Clear,50,2012-10-12 07:55:00
2:15 AM,37.4,30.2,75,30.23,10.0,NE,6.9,-,N/A,,Clear,50,2012-10-12 08:15:00
2:35 AM,37.4,30.2,75,30.22,10.0,NE,6.9,-,N/A,,Clear,40,2012-10-12 08:35:00
2:55 AM,37.4,30.2,75,30.21,10.0,North,6.9,-,N/A,,Clear,10,2012-10-12 08:55:00
3:15 AM,35.6,30.2,81,30.19,10.0,North,9.2,-,N/A,,Clear,10,2012-10-12 09:15:00
3:35 AM,35.6,28.4,75,30.19,10.0,North,6.9,-,N/A,,Clear,10,2012-10-12 09:35:00
3:55 AM,35.6,28.4,75,30.19,10.0,North,6.9,-,N/A,,Clear,350,2012-10-12 09:55:00
4:15 AM,35.6,28.4,75,30.18,10.0,North,5.8,-,N/A,,Clear,350,2012-10-12 10:15:00
4:55 AM,35.6,28.4,75,30.18,10.0,North,6.9,-,N/A,,Clear,10,2012-10-12 10:55:00
5:15 AM,35.6,28.4,75,30.16,10.0,North,8.1,-,N/A,,Clear,360,2012-10-12 11:15:00
5:35 AM,35.6,28.4,75,30.17,10.0,North,5.8,-,N/A,,Clear,10,2012-10-12 11:35:00
5:55 AM,33.8,28.4,81,30.16,10.0,North,4.6,-,N/A,,Clear,10,2012-10-12 11:55:00
6:15 AM,33.8,28.4,81,30.16,10.0,North,5.8,-,N/A,,Clear,360,2012-10-12 12:15:00
6:35 AM,33.8,28.4,81,30.16,10.0,North,4.6,-,N/A,,Clear,10,2012-10-12 12:35:00
6:55 AM,33.8,28.4,81,30.16,10.0,North,4.6,-,N/A,,Clear,360,2012-10-12 12:55:00
7:15 AM,33.8,28.4,81,30.16,10.0,North,3.5,-,N/A,,Clear,350,2012-10-12 13:15:00
7:35 AM,30.2,26.6,86,30.15,10.0,NNW,4.6,-,N/A,,Clear,340,2012-10-12 13:35:00
8:15 AM,33.8,30.2,87,30.16,10.0,North,4.6,-,N/A,,Clear,360,2012-10-12 14:15:00
8:35 AM,35.6,30.2,81,30.16,10.0,Calm,Calm,-,N/A,,Clear,0,2012-10-12 14:35:00
8:55 AM,35.6,30.2,81,30.15,10.0,North,5.8,-,N/A,,Clear,10,2012-10-12 14:55:00
9:15 AM,37.4,30.2,75,30.15,10.0,North,6.9,-,N/A,,Clear,360,2012-10-12 15:15:00
9:35 AM,37.4,30.2,75,30.14,10.0,North,5.8,-,N/A,,Clear,360,2012-10-12 15:35:00
9:55 AM,37.4,30.2,75,30.13,10.0,North,4.6,-,N/A,,Clear,350,2012-10-12 15:55:00
10:15 AM,39.2,32.0,75,30.12,10.0,NNW,5.8,-,N/A,,Clear,330,2012-10-12 16:15:00
10:35 AM,41.0,30.2,65,30.10,10.0,North,3.5,-,N/A,,Clear,360,2012-10-12 16:35:00
10:55 AM,42.8,32.0,66,30.09,10.0,North,3.5,-,N/A,,Clear,10,2012-10-12 16:55:00
11:15 AM,44.6,33.8,66,30.07,10.0,North,4.6,-,N/A,,Clear,10,2012-10-12 17:15:00
11:35 AM,46.4,32.0,57,30.09,10.0,Calm,Calm,-,N/A,,Clear,0,2012-10-12 17:35:00
11:55 AM,46.4,32.0,57,30.06,10.0,Calm,Calm,-,N/A,,Clear,0,2012-10-12 17:55:00
12:35 PM,48.2,33.8,58,30.05,10.0,SE,5.8,-,N/A,,Clear,140,2012-10-12 18:35:00
12:55 PM,48.2,33.8,58,30.06,10.0,SSE,5.8,-,N/A,,Clear,160,2012-10-12 18:55:00
1:15 PM,48.2,33.8,58,30.07,10.0,SSE,10.4,-,N/A,,Partly Cloudy,160,2012-10-12 19:15:00
1:35 PM,48.2,33.8,58,30.07,10.0,South,12.7,-,N/A,,Mostly Cloudy,170,2012-10-12 19:35:00
1:55 PM,48.2,33.8,58,30.03,10.0,SW,9.2,-,N/A,,Scattered Clouds,220,2012-10-12 19:55:00
2:35 PM,48.2,35.6,62,29.98,10.0,Calm,Calm,-,N/A,,Scattered Clouds,0,2012-10-12 20:35:00
2:55 PM,51.8,35.6,54,29.96,10.0,NNE,5.8,-,N/A,,Clear,20,2012-10-12 20:55:00
3:15 PM,55.4,37.4,51,29.95,10.0,NNE,11.5,-,N/A,,Clear,20,2012-10-12 21:15:00
3:35 PM,53.6,35.6,51,29.94,10.0,North,8.1,-,N/A,,Clear,350,2012-10-12 21:35:00
3:55 PM,53.6,37.4,54,29.93,10.0,North,5.8,-,N/A,,Clear,360,2012-10-12 21:55:00
4:15 PM,53.6,35.6,51,29.93,10.0,NNW,6.9,-,N/A,,Clear,340,2012-10-12 22:15:00
4:55 PM,53.6,37.4,54,29.92,10.0,NNW,8.1,-,N/A,,Clear,340,2012-10-12 22:55:00
5:55 PM,53.6,39.2,58,29.93,10.0,South,5.8,-,N/A,,Overcast,180,2012-10-12 23:55:00
6:15 PM,50.0,42.8,76,29.91,10.0,WNW,10.4,-,N/A,,Mostly Cloudy,290,2012-10-13 00:15:00
6:55 PM,51.8,39.2,62,29.90,10.0,ESE,13.8,-,N/A,,Mostly Cloudy,110,2012-10-13 00:55:00
7:15 PM,51.8,37.4,58,29.93,10.0,SW,5.8,-,N/A,,Clear,230,2012-10-13 01:15:00
8:15 PM,48.2,39.2,71,29.93,10.0,Calm,Calm,-,N/A,,Clear,0,2012-10-13 02:15:00
8:35 PM,48.2,39.2,71,29.94,10.0,WNW,3.5,-,N/A,,Clear,290,2012-10-13 02:35:00
8:55 PM,48.2,39.2,71,29.94,10.0,Calm,Calm,-,N/A,,Clear,0,2012-10-13 02:55:00
9:55 PM,48.2,39.2,71,29.94,10.0,Calm,Calm,-,N/A,,Mostly Cloudy,0,2012-10-13 03:55:00
10:15 PM,48.2,39.2,71,29.93,10.0,Calm,Calm,-,N/A,,Overcast,0,2012-10-13 04:15:00
10:35 PM,46.4,39.2,76,29.92,10.0,Calm,Calm,-,N/A,,Scattered Clouds,0,2012-10-13 04:35:00
10:55 PM,46.4,39.2,76,29.94,10.0,SSW,9.2,-,N/A,Thunderstorm,Mostly Cloudy,200,2012-10-13 04:55:00
11:15 PM,46.4,42.8,87,29.95,10.0,South,15.0,-,N/A,,Overcast,190,2012-10-13 05:15:00
11:55 PM,51.8,42.8,71,29.92,10.0,North,6.9,-,0.02,,Overcast,10,2012-10-13 05:55:00